This demonstration page uses our WeatherBlox Daily Observations layout. Learn more.

Left ArrowRight Arrow

31.84235, -102.49876

Hourly Observations for August 19, 2015

Temp ( °F °C ) Dew Point ( °F °C ) Humidity (%) Winds ( mph kmh ) Pressure ( in mb ) Visibility ( mi km ) Precip ( " mm )
12:53 am 00:53 Clear 85 29.4 56 13.3 37 37 S 15 24 29.65 1004 10 16 0.00 0.00
1:53 am 01:53 Clear 83 28.3 55 12.8 38 38 S 16 26 29.63 1004 10 16 0.00 0.00
2:53 am 02:53 Clear 82 27.8 55 12.8 40 40 S 15 24 29.62 1003 10 16 0.00 0.00
3:53 am 03:53 Clear 81 27.2 55 12.8 41 41 SSW 13 20 29.62 1003 10 16 0.00 0.00
4:53 am 04:53 Clear 81 27.2 55 12.8 41 41 S 14 22 29.63 1004 10 16 0.00 0.00
5:53 am 05:53 Clear 79 26.1 55 12.8 44 44 SSW 12 19 29.65 1004 10 16 0.00 0.00
6:53 am 06:53 Clear 78 25.6 56 13.3 47 47 S 14 22 29.66 1004 10 16 0.00 0.00
7:48 am 07:48 Mostly Sunny 79 26 59 15 51 51 SE 6 9 29.71 1006 10 16 0.00 0.00
7:53 am 07:53 Mostly Sunny 78 25.6 59 15 52 52 E 9 15 29.72 1007 10 16 0.00 0.00
8:53 am 08:53 Sunny 80 26.7 60 15.6 51 51 E 10 17 29.74 1007 10 16 0.00 0.00
9:53 am 09:53 Sunny 81 27.2 64 17.8 57 57 SE 18 30 29.74 1007 10 16 0.00 0.00
10:53 am 10:53 Sunny 84 28.9 64 17.8 51 51 SE 8 13 29.75 1008 10 16 0.00 0.00
11:53 am 11:53 Sunny 85 29.4 64 17.8 50 50 ESE 6 9 29.78 1008 10 16 0.00 0.00
12:53 pm 12:53 Cloudy 85 29.4 63 17.2 48 48 ENE 24 39 29.80 1009 10 16 0.00 0.00
1:53 pm 13:53 Partly Cloudy 83 28.3 61 16.1 48 48 NE 25 41 29.81 1010 10 16 0.00 0.00
2:53 pm 14:53 Sunny 83 28.3 61 16.1 48 48 NE 24 39 29.81 1010 10 16 0.00 0.00
3:53 pm 15:53 Sunny 82 27.8 61 16.1 49 49 ENE 23 37 29.81 1010 10 16 0.00 0.00
4:53 pm 16:53 Sunny 81 27.2 60 15.6 49 49 NE 21 33 29.81 1009 10 16 0.00 0.00
5:53 pm 17:53 Sunny 80 26.7 59 15 49 49 ENE 23 37 29.81 1010 10 16 0.00 0.00
6:53 pm 18:53 Sunny 76 24.4 59 15 56 56 NE 23 37 29.83 1010 10 16 0.00 0.00
7:53 pm 19:53 Sunny 71 21.7 58 14.4 63 63 NE 21 33 29.87 1012 10 16 0.00 0.00
8:53 pm 20:53 Clear 68 20 55 12.8 63 63 NE 16 26 29.90 1013 10 16 0.00 0.00
9:53 pm 21:53 Clear 68 20 52 11.1 57 57 ENE 14 22 29.93 1014 10 16 0.00 0.00
10:53 pm 22:53 Clear 67 19.4 51 10.6 57 57 ENE 14 22 29.94 1014 10 16 0.00 0.00
11:53 pm 23:53 Clear 66 18.9 50 10 56 56 ENE 12 19 29.95 1014 10 16 0.00 0.00

Powered by AerisWeather